{"data":{"norad_id":62591,"epoch":"2026-09-21T18:51:46.431648Z","epoch_age_seconds":60152,"freshness":"FRESH","line1":"1 62591U 25008E   26264.78595407  .00245480  00000+0  18532-2 0  9996","line2":"2 62591  43.0006  24.2909 0002855 326.2327  33.8359 15.70934281 98131","mean_motion":15.70934281,"eccentricity":0.0002855,"inclination_deg":43.0006,"raan_deg":24.2909,"arg_perigee_deg":326.2327,"mean_anomaly_deg":33.8359,"bstar":0.0018532,"rev_number":9813,"period_min":91.665196782347,"perigee_km":354.30294177991,"apogee_km":358.14826282582,"semimajor_km":6734.3626023029,"source":"CELESTRAK","updated_at":"2026-09-22T09:00:49.631293Z"}}